Tracking 30995 objects as of 7-Jul-2025
HD Live streaming from Space Station
objects crossing your sky now

FREGAT R/B

Track FREGAT R/B now!


NORAD ID: 44300
Int'l Code: 2019-030B
Perigee: 19,281.7 km
Apogee: 19,653.0 km
Inclination: 64.3 °
Period: 688.9 minutes
Semi major axis: 25838 km
RCS: Unknown
Launch date: May 27, 2019
Source: Commonwealth of Independent States (former USSR) (CIS)
Launch site: PLESETSK MISSILE AND SPACE COMPLEX (PKMTR)

Note: This is a ROCKET BODY
Your satellite tracking list
FREGAT R/B
Track 1 satellite(s)




NASA's NSSDC Master Catalog

Two Line Element Set (TLE):
1 44300U 19030B   25187.08333000  .00000113  00000-0  00000+0 0  9998
2 44300  64.3042 207.2749 0071852 135.9921 224.6450  2.09028924 46656
Source of the keplerian elements: AFSPC